Tracking 17856 objects as of 28-September-2016
HD Live streaming from Space Station
objects crossing your sky now

AZUR (GRS A)

Track AZUR (GRS A) now!
10-day predictions
AZUR (GRS A) is classified as:


NORAD ID: 4221
Int'l Code: 1969-097A
Perigee: 365.7 km
Apogee: 1,299.3 km
Inclination: 102.7 °
Period: 101.4 minutes
Semi major axis: 7203 km
RCS: 0.3339 m2 (medium)
Launch date: November 8, 1969
Source: Germany (GER)
Launch site: AIR FORCE WESTERN TEST RANGE (AFWTR)
Your satellite tracking list
Your tracking list is empty





NASA's NSSDC Master Catalog

Two Line Element Set (TLE):
1 04221U 69097A   16272.12638613  .00006428  00000-0  30830-3 0  9995
2 04221 102.6866  14.5251 0648075  62.7386 303.8270 14.20471677211949
Source of the keplerian elements: AFSPC

N2YO: 516